Aérodrome :
LOGIN :

S'inscrire | Disclaimer

   EN    FR    IT 

 










Légende :    VFR   VFR Marginal   IFR   IFR Intensif   IFR Très Intensif
Visi : 
Plafond : 
>= 8 km
>= 3000ft
5 à 8 km
1000 à 3000 ft
1500m à 5 km
500 à 1000 ft
800 à 1500m
200 à 500 ft
< 800m
< 200 ft
Symboles :   Orages  Brouillard  Fortes neiges  Fortes précipitations  Vent > 20 kt
SIGMETs :   Divers  Orages  Givrage  Turbulence  Onde Orograph.  Cendres Volcan.






- Altitude de l'aérodrome : 290 ft
- Code IATA : LAI


LFRO - Lannion

DERNIER METAR :
  • 091000Z AUTO VRB03KT CAVOK 08/03 Q1024

METARs EXPIRÉS :
  • 090930Z AUTO 20004KT 9000 NSC 07/02 Q1024
  • 090900Z AUTO VRB03KT 9000 NSC 06/02 Q1025
  • 090830Z AUTO 21004KT 8000 NSC 03/01 Q1025
  • 090800Z AUTO 15003KT 6000 NSC 01/M00 Q1024
  • 090730Z AUTO 15004KT 5000 BR NSC M01/M02 Q1023

Prévision TAF périmée.



MET'MAP, la Météo Aéronautique d'un coup d'oeil ! - Copyright ORBIFLY Décembre 2007 - Disclaimer

ORBIFLY MET'MAP TEAM :

Programmation & Développement : Alexandra Zaïnal
Sur une idée originale de : Baudouin d'Aumeries
Assistance à la programmation : Marc-Olivier Méhu
Soutien technique & logistique : Manuel Goepfert

Contact : metmap@orbifly.com




SOURCES & CREDITS :

   NOAA